Location: Newark
(48.4472°N, 1.4892°E)
Time: 10:02:40
(UTC+00:00)

Transit 4A - Pass Details

Date: 24 January 2021
Orbit: 866 x 978 km, 66.8° (Epoch: 26 February)

Event Time Altitude Azimuth Distance (km) Brightness Sun altitude
Rises 21:12:52 0° 262° (W) 3,677 11.6 -44.4°
Reaches altitude 10° 21:15:58 10° 276° (W) 2,729 10.9 -44.9°
Enters shadow 21:18:40 20° 298° (WNW) 2,099 10.2 -45.3°
